Location: Bord�res
(43.2000°N, 0.2167°W)
Time: 14:34:44
(UTC+00:00)

Meteor 2-20 - Pass Details

Date: 03 March 2021
Orbit: 940 x 958 km, 82.5° (Epoch: 20 April)

Event Time Altitude Azimuth Distance (km) Brightness Sun altitude
Rises 20:29:36 0° 350° (N) 3,622 7.9 -29.0°
Reaches altitude 10° 20:32:05 10° 350° (N) 2,676 7.1 -29.4°
Enters shadow 20:38:11 81° 270° (W) 966 4.4 -30.5°
